Terug naar catalogus

FENGYUN 1C DEB

LostPO
NORAD 31957·DEBRIS·🇨🇳 China

Gelanceerd May 10, 1999 vanaf Taiyuan Satellite Launch Center

Loading…

Volgende Passages (komende 24 uur)

TLE

VerouderdSource: Space-Track

Epoch: Sep 22, 2022, 21:40 UTC

1 31957U 99025CNJ 22265.90305591  .00002065  00000-0  68599-3 0  9992
2 31957  99.5023 153.5778 0053183 148.5014 211.9372 14.38177994796183

Volg FENGYUN 1C DEB in realtime met AllMySat

Download on the App Store